COSMOS 2251 DEB, 34944

Orbit data source: Space-Track

COSMOS 2251 DEB, 34944 is space debris in LEO originally from a launch on Wed, 16 Jun 1993 UTC launched from the Plesetsk Missile And Space Complex (PKMTR). The debris from Iridium 33, an American commercial communications satellite, has been tracked extensively since its accidental collision with the defunct Russian satellite Cosmos 2251 in 2009. This event, occurring at high speed in low Earth orbit (LEO), generated thousands of pieces of space debris, significantly increasing the risk of further collisions. The Iridium 33 debris cloud has impacted space traffic management and orbital debris mitigation strategies, making it a subject of ongoing study in space situational awareness.

Loading next visibility...
Identifier
34944, 1993-036ADX
Orbit
LEO
Country
Flag of CISCIS
Related business
Manufacturer
Unknown
Mission
Spacecraft
Bus & Motor
Unknown
Mass
Unknown
Launch date (UTC)
1993-06-16 (32 years ago)
Launch vehicle
Unknown
Launch site
Plesetsk Missile And Space Complex (PKMTR)
Object type
Payload
Rocket body
Debris
Shape & HBR
Unknown shape, 0.1 m
Radar Cross Section
Small (<0.1 m²)

Expand to show TLE details & history
Last TLE update: 1 week ago

TLE from 1 week ago
0 COSMOS 2251 DEB
1 34944U 93036ADX 25297.39303926  .00002056  00000-0  86747-3 0  9993
2 34944  73.7496 321.0548 0220917 177.0138 183.2383 14.14021569633859
Epoch: 2025-10-24T09:25Z
TLE epoch observation values (Epoch: 2025-10-24T09:25:58.592Z)
Latitude
-0.00006°
Longitude
146.52206°
Altitude
1,007.58 km
Speed
7.267 km/s
True Right ascension
21h 24m 13s
True Declination
0° 00' 00"
Sunlit
Object was in daylight at epoch
Visualization orbit readout
Latitude
Unknown
Longitude
Unknown
Altitude
Unknown
Speed
Unknown
Apparent Right ascension
Unknown
Apparent Declination
Unknown
Sunlit
N/A
Visualization observer readout
Local Sidereal Time
01:10:22
Azimuth
Unknown
Elevation
Unknown
Doppler factor
Unknown
Orbital elements
Apogee altitude
1,002.848 km
Perigee altitude
683.78 km
Semi-major axis
7,221.451 km
Eccentricity
0.02209
Inclination
73.7496°
RAAN
321.0548°
Arg. of periapsis
177.0138°
True anomaly
183.09914°
Mean anomaly
183.2383°
Eccentric anomaly
183.16834°
Mean motion
3.53677 °/min
Orbital period
101.79 mins
BSTAR
0.00086747
Loading maneuver chart data...
Computing Atmospheric mass density...

Documentation

Showing up to 5 results
|